EW6393 Weather Reports


Display with metric or nautical units.
time (UTC)temp
F
wind
direction
speed
MPH
gust
MPH
rain 1hr
in
rain 24hr
in
rain mn
in
humidity
%
barometer
mb
20260904073650 74 148 3.0 8.0 0.00 0.00 0.00 16 1011.7
20260904073111 74 113 2.0 7.0 0.00 0.00 0.00 16 1011.7
20260904072612 74 150 2.0 7.0 0.00 0.00 0.00 16 1011.7
20260904072121 74 141 2.0 5.0 0.00 0.00 0.00 17 1011.7
20260904071622 74 126 2.0 7.0 0.00 0.00 0.00 16 1011.7
20260904071124 75 199 2.0 11.0 0.00 0.00 0.00 16 1011.8
20260904070616 75 146 3.0 6.0 0.00 0.00 0.00 17 1011.7
20260904070125 75 126 2.0 7.0 0.00 0.00 0.00 16 1011.6
20260904065626 75 150 2.0 8.0 0.00 0.00 0.00 16 1011.6
20260904065136 75 220 3.0 12.0 0.00 0.00 0.00 16 1011.6
20260904064615 75 129 4.0 10.0 0.00 0.00 0.00 16 1011.6
20260904064145 75 141 3.0 10.0 0.00 0.00 0.00 17 1011.4
20260904063625 75 158 5.0 10.0 0.00 0.00 0.00 17 1011.5
20260904063127 75 132 1.0 5.0 0.00 0.00 0.00 18 1011.4
20260904062636 75 159 3.0 9.0 0.00 0.00 0.00 16 1011.4
20260904062118 75 152 3.0 9.0 0.00 0.00 0.00 17 1011.3
20260904061618 75 120 1.0 5.0 0.00 0.00 0.00 17 1011.3
20260904061126 75 138 2.0 6.0 0.00 0.00 0.00 17 1011.3
20260904060646 75 116 3.0 6.0 0.00 0.00 0.00 16 1011.2
20260904060133 76 134 2.0 9.0 0.00 0.00 0.00 17 1011.3
20260904055614 76 131 5.0 9.0 0.00 0.00 0.00 16 1011.2
20260904055122 76 147 5.0 8.0 0.00 0.00 0.00 17 1011.2
20260904054640 76 106 1.0 8.0 0.00 0.00 0.00 17 1011.1
20260904054127 76 117 2.0 6.0 0.00 0.00 0.00 17 1011.1
20260904053647 76 101 1.0 6.0 0.00 0.00 0.00 17 1011.1
20260904053135 76 104 3.0 8.0 0.00 0.00 0.00 17 1011.0
20260904052637 76 139 3.0 8.0 0.00 0.00 0.00 17 1011.0
20260904052124 76 151 1.0 6.0 0.00 0.00 0.00 17 1010.9
20260904051626 76 172 4.0 6.0 0.00 0.00 0.00 17 1011.0
20260904051125 76 158 3.0 6.0 0.00 0.00 0.00 17 1011.0
20260904050633 76 110 2.0 6.0 0.00 0.00 0.00 17 1011.0
20260904050115 76 148 2.0 7.0 0.00 0.00 0.00 16 1011.0
20260904045616 77 223 1.0 11.0 0.00 0.00 0.00 16 1011.1
20260904045125 77 101 2.0 6.0 0.00 0.00 0.00 17 1011.1
20260904044626 77 156 3.0 6.0 0.00 0.00 0.00 16 1011.1
20260904044135 77 194 2.0 6.0 0.00 0.00 0.00 16 1011.1
20260904043614 78 147 4.0 13.0 0.00 0.00 0.00 16 1011.1
20260904043114 78 132 4.0 13.0 0.00 0.00 0.00 16 1011.1
20260904042623 78 113 3.0 8.0 0.00 0.00 0.00 16 1011.1
20260904042125 78 124 4.0 8.0 0.00 0.00 0.00 16 1011.0
20260904041634 78 134 3.0 12.0 0.00 0.00 0.00 16 1011.1
20260904041115 78 167 6.0 12.0 0.00 0.00 0.00 16 1011.1
20260904040615 78 131 5.0 15.0 0.00 0.00 0.00 16 1011.1
20260904040125 77 158 4.0 15.0 0.00 0.00 0.00 17 1011.0
20260904035633 77 230 4.0 10.0 0.00 0.00 0.00 17 1010.9
20260904035113 77 145 2.0 7.0 0.00 0.00 0.00 17 1010.9
20260904034614 77 98 1.0 5.0 0.00 0.00 0.00 17 1010.9
20260904034115 77 103 3.0 5.0 0.00 0.00 0.00 17 1010.9
20260904033623 77 63 2.0 6.0 0.00 0.00 0.00 17 1010.9
20260904033123 77 134 3.0 6.0 0.00 0.00 0.00 18 1010.8
20260904032631 77 108 1.0 4.0 0.00 0.00 0.00 18 1010.9
20260904032117 77 99 2.0 5.0 0.00 0.00 0.00 18 1010.9
20260904031620 77 118 3.0 5.0 0.00 0.00 0.00 17 1010.8
20260904031129 78 136 3.0 5.0 0.00 0.00 0.00 17 1010.8
20260904030646 78 127 2.0 7.0 0.00 0.00 0.00 17 1010.7
20260904030117 78 125 3.0 7.0 0.00 0.00 0.00 17 1010.7
20260904025617 78 158 2.0 6.0 0.00 0.00 0.00 17 1010.6
20260904025120 78 209 3.0 6.0 0.00 0.00 0.00 16 1010.6
20260904024627 78 131 1.0 5.0 0.00 0.00 0.00 17 1010.6
20260904024130 78 120 3.0 6.0 0.00 0.00 0.00 17 1010.5
20260904023632 78 134 3.0 6.0 0.00 0.00 0.00 17 1010.5
20260904023119 79 129 3.0 7.0 0.00 0.00 0.00 17 1010.5
20260904022620 79 136 3.0 9.0 0.00 0.00 0.00 17 1010.4
20260904022123 78 124 4.0 9.0 0.00 0.00 0.00 17 1010.5
20260904021632 78 98 2.0 6.0 0.00 0.00 0.00 18 1010.5
20260904021113 78 117 3.0 6.0 0.00 0.00 0.00 18 1010.4
20260904020614 79 151 1.0 3.0 0.00 0.00 0.00 17 1010.5
20260904020121 79 115 1.0 4.0 0.00 0.00 0.00 17 1010.4
20260904015621 80 154 1.0 6.0 0.00 0.00 0.00 16 1010.4
20260904015123 81 155 2.0 10.0 0.00 0.00 0.00 16 1010.5
20260904014612 81 158 3.0 10.0 0.00 0.00 0.00 16 1010.6
20260904014113 82 337 1.0 6.0 0.00 0.00 0.00 16 1010.5
20260904013615 82 262 1.0 6.0 0.00 0.00 0.00 16 1010.4
20260904013124 82 219 1.0 5.0 0.00 0.00 0.00 16 1010.5
20260904012654 83 74 1.0 4.0 0.00 0.00 0.00 16 1010.5
20260904012114 83 203 1.0 8.0 0.00 0.00 0.00 17 1010.5
20260904011616 83 297 1.0 10.0 0.00 0.00 0.00 16 1010.6
20260904011117 83 13 3.0 10.0 0.00 0.00 0.00 15 1010.5
20260904010625 83 179 1.0 10.0 0.00 0.00 0.00 16 1010.6
20260904010123 83 198 4.0 10.0 0.00 0.00 0.00 15 1010.6
20260904005633 82 234 1.0 7.0 0.00 0.00 0.00 16 1010.6
20260904005114 82 169 3.0 8.0 0.00 0.00 0.00 15 1010.6
20260904004636 81 173 4.0 8.0 0.00 0.00 0.00 15 1010.6
20260904004123 81 240 4.0 9.0 0.00 0.00 0.00 16 1010.8
20260904003626 82 154 3.0 10.0 0.00 0.00 0.00 15 1010.6
20260904003135 82 207 3.0 11.0 0.00 0.00 0.00 15 1010.7
20260904002616 82 212 3.0 12.0 0.00 0.00 0.00 15 1010.7
20260904002117 83 95 4.0 9.0 0.00 0.00 0.00 14 1010.8
20260904001627 83 155 3.0 8.0 0.00 0.00 0.00 14 1010.8
20260904001127 84 129 3.0 8.0 0.00 0.00 0.00 14 1010.8
20260904000629 84 162 4.0 11.0 0.00 0.00 0.00 14 1010.9
20260904000117 84 176 3.0 11.0 0.00 0.00 0.00 13 1010.9
20260903235638 85 228 3.0 10.0 0.00 0.00 0.00 14 1011.0
20260903235145 86 186 4.0 13.0 0.00 0.00 0.00 13 1011.0
20260903234625 86 150 5.0 13.0 0.00 0.00 0.00 14 1011.1
20260903234133 86 160 7.0 13.0 0.00 0.00 0.00 13 1011.0
20260903233636 86 84 3.0 10.0 0.00 0.00 0.00 14 1011.1
20260903233123 86 250 5.0 13.0 0.00 0.00 0.00 13 1011.1
20260903232624 85 125 4.0 13.0 0.00 0.00 0.00 14 1011.2
20260903232126 85 233 5.0 15.0 0.00 0.00 0.00 14 1011.3
20260903231635 85 174 6.0 15.0 0.00 0.00 0.00 12 1011.4
20260903231116 85 141 6.0 15.0 0.00 0.00 0.00 13 1011.4
20260903230644 85 170 3.0 15.0 0.00 0.00 0.00 13 1011.3
20260903230124 85 122 3.0 15.0 0.00 0.00 0.00 13 1011.4
20260903225622 85 180 8.0 15.0 0.00 0.00 0.00 12 1011.5
20260903225151 85 205 5.0 13.0 0.00 0.00 0.00 13 1011.4
20260903224638 85 267 5.0 13.0 0.00 0.00 0.00 14 1011.6
20260903224120 85 240 5.0 11.0 0.00 0.00 0.00 14 1011.7
20260903223622 85 229 5.0 11.0 0.00 0.00 0.00 13 1011.8
20260903223122 85 204 4.0 12.0 0.00 0.00 0.00 14 1011.9
20260903222630 84 212 6.0 15.0 0.00 0.00 0.00 13 1011.9
20260903222136 85 140 8.0 15.0 0.00 0.00 0.00 13 1012.1
20260903221615 85 195 3.0 13.0 0.00 0.00 0.00 14 1012.1
20260903221116 84 128 3.0 15.0 0.00 0.00 0.00 14 1012.2
20260903220618 84 179 7.0 15.0 0.00 0.00 0.00 13 1012.3
20260903220125 84 182 5.0 13.0 0.00 0.00 0.00 13 1012.3
20260903215627 84 221 7.0 13.0 0.00 0.00 0.00 12 1012.5
20260903215136 84 210 4.0 10.0 0.00 0.00 0.00 14 1012.5
20260903214616 84 143 6.0 10.0 0.00 0.00 0.00 13 1012.7
20260903214117 84 170 4.0 12.0 0.00 0.00 0.00 14 1012.7
20260903213625 83 198 4.0 15.0 0.00 0.00 0.00 13 1012.6
20260903213135 84 203 7.0 18.0 0.00 0.00 0.00 13 1012.6
20260903212614 84 217 8.0 18.0 0.00 0.00 0.00 14 1012.8
20260903212124 84 115 4.0 9.0 0.00 0.00 0.00 15 1012.7
20260903211626 84 224 4.0 14.0 0.00 0.00 0.00 14 1012.9
20260903211136 83 200 5.0 15.0 0.00 0.00 0.00 14 1012.9
20260903210615 83 174 6.0 15.0 0.00 0.00 0.00 13 1012.9
20260903210114 83 186 3.0 17.0 0.00 0.00 0.00 15 1013.1
20260903205614 83 211 5.0 17.0 0.00 0.00 0.00 14 1013.2
20260903205122 84 192 5.0 13.0 0.00 0.00 0.00 14 1013.2
20260903204624 84 205 5.0 11.0 0.00 0.00 0.00 13 1013.2
20260903204133 83 148 3.0 10.0 0.00 0.00 0.00 15 1013.4
20260903203615 83 110 5.0 16.0 0.00 0.00 0.00 14 1013.5
20260903203115 83 134 4.0 15.0 0.00 0.00 0.00 15 1013.7
20260903202616 82 189 4.0 15.0 0.00 0.00 0.00 15 1013.7
20260903202125 83 155 6.0 14.0 0.00 0.00 0.00 14 1013.8
20260903201626 82 201 4.0 15.0 0.00 0.00 0.00 15 1013.9
20260903201134 82 188 4.0 15.0 0.00 0.00 0.00 16 1013.9
20260903200615 82 125 7.0 13.0 0.00 0.00 0.00 14 1014.0
20260903200116 82 159 6.0 13.0 0.00 0.00 0.00 15 1014.1
20260903195643 82 215 5.0 12.0 0.00 0.00 0.00 16 1014.1
20260903195123 82 162 5.0 12.0 0.00 0.00 0.00 15 1014.2
20260903194632 81 119 4.0 13.0 0.00 0.00 0.00 14 1014.2
20260903194114 81 131 6.0 14.0 0.00 0.00 0.00 15 1014.2
20260903193614 81 146 3.0 14.0 0.00 0.00 0.00 17 1014.4
20260903193122 81 146 6.0 14.0 0.00 0.00 0.00 15 1014.4
20260903192625 81 151 7.0 14.0 0.00 0.00 0.00 15 1014.6
20260903192128 81 232 5.0 10.0 0.00 0.00 0.00 15 1014.6
20260903191636 81 148 5.0 10.0 0.00 0.00 0.00 16 1014.6
20260903191115 81 182 4.0 12.0 0.00 0.00 0.00 16 1014.7
20260903190615 80 139 5.0 13.0 0.00 0.00 0.00 16 1014.8
20260903190121 80 168 4.0 15.0 0.00 0.00 0.00 16 1014.7
20260903185650 80 115 5.0 12.0 0.00 0.00 0.00 15 1014.9
20260903185138 80 140 5.0 10.0 0.00 0.00 0.00 16 1015.0
20260903184620 81 122 5.0 9.0 0.00 0.00 0.00 16 1015.0
20260903184119 81 135 3.0 9.0 0.00 0.00 0.00 16 1015.0
20260903183621 81 216 2.0 10.0 0.00 0.00 0.00 17 1015.2
20260903183129 80 230 3.0 10.0 0.00 0.00 0.00 17 1015.4
20260903182630 80 196 3.0 14.0 0.00 0.00 0.00 16 1015.4
20260903182118 80 169 2.0 14.0 0.00 0.00 0.00 16 1015.5
20260903181620 79 203 2.0 17.0 0.00 0.00 0.00 17 1015.5
20260903181122 78 120 5.0 17.0 0.00 0.00 0.00 16 1015.6
20260903180629 78 151 5.0 12.0 0.00 0.00 0.00 16 1015.8
20260903180127 78 145 6.0 14.0 0.00 0.00 0.00 16 1015.8
20260903175635 78 181 9.0 14.0 0.00 0.00 0.00 15 1015.7
20260903175115 77 164 8.0 16.0 0.00 0.00 0.00 16 1015.8
20260903174644 78 143 8.0 16.0 0.00 0.00 0.00 16 1015.7
20260903174152 78 160 5.0 15.0 0.00 0.00 0.00 16 1015.7
20260903173613 78 153 4.0 11.0 0.00 0.00 0.00 16 1015.8
20260903173113 77 233 7.0 15.0 0.00 0.00 0.00 16 1015.8
20260903172615 77 165 6.0 13.0 0.00 0.00 0.00 17 1015.7
20260903172124 77 193 4.0 12.0 0.00 0.00 0.00 17 1015.9
20260903171653 76 134 4.0 11.0 0.00 0.00 0.00 16 1015.9
20260903171114 76 220 6.0 12.0 0.00 0.00 0.00 16 1016.0
20260903170613 77 148 7.0 12.0 0.00 0.00 0.00 16 1016.0
20260903170120 77 115 4.0 11.0 0.00 0.00 0.00 17 1016.1
20260903165623 77 138 4.0 11.0 0.00 0.00 0.00 17 1016.0
20260903165124 76 211 5.0 12.0 0.00 0.00 0.00 17 1015.9
20260903164633 77 223 4.0 13.0 0.00 0.00 0.00 16 1016.1
20260903164114 76 160 6.0 13.0 0.00 0.00 0.00 16 1016.0
20260903163622 76 162 2.0 12.0 0.00 0.00 0.00 17 1016.0
20260903163124 76 267 2.0 6.0 0.00 0.00 0.00 18 1016.0
20260903162626 75 153 3.0 6.0 0.00 0.00 0.00 19 1016.0
20260903162134 75 184 2.0 4.0 0.00 0.00 0.00 21 1016.1
20260903161615 74 279 0.0 4.0 0.00 0.00 0.00 22 1016.0
20260903161117 74 226 1.0 6.0 0.00 0.00 0.00 24 1016.0
20260903160625 73 138 3.0 6.0 0.00 0.00 0.00 21 1016.0
20260903160126 73 287 1.0 6.0 0.00 0.00 0.00 20 1016.0
20260903155627 73 286 1.0 2.0 0.00 0.00 0.00 22 1016.0
20260903155136 73 283 0.0 1.0 0.00 0.00 0.00 22 1015.9
20260903154618 73 310 0.0 1.0 0.00 0.00 0.00 22 1015.9
20260903154146 73 118 0.0 1.0 0.00 0.00 0.00 20 1015.9
20260903153626 72 150 0.0 1.0 0.00 0.00 0.00 21 1016.0
20260903153133 71 124 0.0 1.0 0.00 0.00 0.00 23 1016.0
20260903152612 71 278 0.0 2.0 0.00 0.00 0.00 22 1016.2
20260903152120 71 307 0.0 1.0 0.00 0.00 0.00 22 1016.2
20260903151622 71 69 0.0 1.0 0.00 0.00 0.00 24 1016.3
20260903151151 70 69 0.0 1.0 0.00 0.00 0.00 25 1016.3
20260903150631 69 289 0.0 3.0 0.00 0.00 0.00 29 1016.3
20260903150112 69 29 0.0 3.0 0.00 0.00 0.00 30 1016.2
20260903145619 68 83 0.0 1.0 0.00 0.00 0.00 31 1016.2
20260903145121 67 84 0.0 1.0 0.00 0.00 0.00 30 1016.2
20260903144624 67 84 0.0 1.0 0.00 0.00 0.00 31 1016.2
20260903144133 66 84 0.0 0.0 0.00 0.00 0.00 30 1016.1
20260903143615 64 84 0.0 0.0 0.00 0.00 0.00 31 1016.1
20260903143114 62 84 0.0 1.0 0.00 0.00 0.00 32 1016.0
20260903142643 61 84 0.0 2.0 0.00 0.00 0.00 35 1016.0
20260903142123 60 108 0.0 1.0 0.00 0.00 0.00 34 1016.1
20260903141632 59 68 1.0 1.0 0.00 0.00 0.00 35 1016.1
20260903141115 58 68 1.0 1.0 0.00 0.00 0.00 35 1016.1
20260903140616 58 68 1.0 1.0 0.00 0.00 0.00 38 1016.1
20260903140124 58 72 0.0 1.0 0.00 0.00 0.00 41 1016.0
20260903135627 58 74 0.0 1.0 0.00 0.00 0.00 39 1016.0
20260903135134 58 74 0.0 1.0 0.00 0.00 0.00 38 1016.0
20260903134617 58 120 1.0 2.0 0.00 0.00 0.00 39 1015.9
20260903134138 58 97 1.0 2.0 0.00 0.00 0.00 37 1015.9
20260903133626 58 71 1.0 2.0 0.00 0.00 0.00 37 1015.7
20260903133134 59 63 0.0 2.0 0.00 0.00 0.00 35 1015.7
20260903132616 59 304 0.0 1.0 0.00 0.00 0.00 35 1015.6
20260903132117 60 81 1.0 2.0 0.00 0.00 0.00 32 1015.6
20260903131619 60 92 0.0 2.0 0.00 0.00 0.00 32 1015.4
20260903131127 59 94 1.0 2.0 0.00 0.00 0.00 31 1015.5
20260903130628 59 60 2.0 2.0 0.00 0.00 0.00 33 1015.3
20260903130116 59 63 2.0 2.0 0.00 0.00 0.00 32 1015.3
20260903125619 59 57 0.0 2.0 0.00 0.00 0.00 33 1015.3
20260903125120 59 57 0.0 2.0 0.00 0.00 0.00 33 1015.2
20260903124628 59 72 1.0 2.0 0.00 0.00 0.00 33 1015.2
20260903124137 60 98 2.0 2.0 0.00 0.00 0.00 34 1015.1
20260903123619 60 131 1.0 1.0 0.00 0.00 0.00 32 1015.2
20260903123121 60 57 0.0 2.0 0.00 0.00 0.00 31 1015.2
20260903122623 60 75 1.0 2.0 0.00 0.00 0.00 32 1015.1
20260903122133 60 59 0.0 3.0 0.00 0.00 0.00 31 1015.1
20260903121614 60 75 1.0 3.0 0.00 0.00 0.00 33 1015.1
20260903121115 60 72 1.0 2.0 0.00 0.00 0.00 33 1015.1
20260903120623 61 70 1.0 4.0 0.00 0.00 0.00 33 1015.1
20260903120124 60 57 2.0 4.0 0.00 0.00 0.00 33 1015.1
20260903115631 61 65 1.0 2.0 0.00 0.00 0.00 32 1015.1
20260903115112 61 76 1.0 3.0 0.00 0.00 0.00 32 1015.0
20260903114614 61 62 0.0 3.0 0.00 0.00 0.00 31 1015.0
20260903114144 61 60 1.0 2.0 0.00 0.00 0.00 31 1015.0
20260903113624 61 53 0.0 2.0 0.00 0.00 0.00 32 1015.0
20260903113133 61 56 1.0 2.0 0.00 0.00 0.00 32 1015.0
20260903112615 61 53 0.0 2.0 0.00 0.00 0.00 33 1015.0
20260903112116 61 50 0.0 2.0 0.00 0.00 0.00 32 1015.0
20260903111625 61 59 1.0 3.0 0.00 0.00 0.00 34 1015.0
20260903111124 61 68 1.0 3.0 0.00 0.00 0.00 33 1015.0
20260903110634 61 49 2.0 3.0 0.00 0.00 0.00 33 1015.0
20260903110115 61 87 1.0 3.0 0.00 0.00 0.00 33 1015.0
20260903105613 61 65 1.0 3.0 0.00 0.00 0.00 34 1015.0
20260903105122 61 87 2.0 2.0 0.00 0.00 0.00 35 1015.0
20260903104623 61 60 1.0 1.0 0.00 0.00 0.00 35 1015.0
20260903104124 60 60 0.0 2.0 0.00 0.00 0.00 41 1015.0
20260903103633 60 60 1.0 2.0 0.00 0.00 0.00 43 1015.0
20260903103115 61 50 1.0 2.0 0.00 0.00 0.00 43 1015.0
20260903102618 62 301 0.0 1.0 0.00 0.00 0.00 39 1014.9
20260903102119 62 27 0.0 1.0 0.00 0.00 0.00 36 1014.8
20260903101628 62 57 0.0 1.0 0.00 0.00 0.00 35 1014.8
20260903101130 63 57 0.0 2.0 0.00 0.00 0.00 36 1014.8
20260903100640 64 57 0.0 2.0 0.00 0.00 0.00 30 1014.6
20260903100149 64 57 1.0 2.0 0.00 0.00 0.00 30 1014.6
20260903095629 63 63 0.0 2.0 0.00 0.00 0.00 30 1014.5
20260903095112 63 63 1.0 2.0 0.00 0.00 0.00 30 1014.6
20260903094614 63 43 0.0 1.0 0.00 0.00 0.00 32 1014.4
20260903094142 63 56 0.0 2.0 0.00 0.00 0.00 32 1014.5
20260903093623 63 73 0.0 2.0 0.00 0.00 0.00 33 1014.5
20260903093132 62 73 1.0 2.0 0.00 0.00 0.00 34 1014.4
20260903092614 62 58 1.0 2.0 0.00 0.00 0.00 37 1014.5
20260903092116 62 58 1.0 3.0 0.00 0.00 0.00 40 1014.5
20260903091625 62 84 1.0 3.0 0.00 0.00 0.00 40 1014.4
20260903091127 62 59 1.0 2.0 0.00 0.00 0.00 41 1014.4
20260903090629 62 70 1.0 2.0 0.00 0.00 0.00 42 1014.5
20260903090137 62 51 1.0 1.0 0.00 0.00 0.00 42 1014.5
20260903085625 62 22 0.0 1.0 0.00 0.00 0.00 41 1014.6
20260903085134 62 22 0.0 1.0 0.00 0.00 0.00 41 1014.5
20260903084635 62 22 0.0 1.0 0.00 0.00 0.00 40 1014.5
20260903084123 62 22 0.0 1.0 0.00 0.00 0.00 43 1014.6
20260903083625 63 22 0.0 1.0 0.00 0.00 0.00 42 1014.6
20260903083133 63 13 0.0 1.0 0.00 0.00 0.00 41 1014.6
20260903082614 63 13 0.0 1.0 0.00 0.00 0.00 40 1014.6
20260903082115 63 13 0.0 0.0 0.00 0.00 0.00 40 1014.7
20260903081617 63 13 0.0 1.0 0.00 0.00 0.00 41 1014.7
20260903081125 63 13 0.0 1.0 0.00 0.00 0.00 39 1014.6
20260903080626 63 13 0.0 1.0 0.00 0.00 0.00 37 1014.5
20260903080135 64 13 0.0 1.0 0.00 0.00 0.00 36 1014.5
20260903075616 64 311 0.0 2.0 0.00 0.00 0.00 38 1014.5
20260903075145 65 280 1.0 2.0 0.00 0.00 0.00 37 1014.4
20260903074626 65 69 0.0 1.0 0.00 0.00 0.00 36 1014.4
20260903074136 65 68 0.0 1.0 0.00 0.00 0.00 35 1014.3